2015-05-14 00:03:59 r, 15.60m,0000000050Hz,0000009121c,0000000.020s, 023.2C,00002195
2015-05-14 00:13:59 r, 15.91m,0000000038Hz,0000012054c,0000000.026s, 023.5C,00002195
2015-05-14 00:23:59 r, 15.75m,0000000044Hz,0000010463c,0000000.023s, 023.5C,00002195
2015-05-14 00:33:59 r, 15.82m,0000000042Hz,0000011022c,0000000.024s, 023.5C,00002195
2015-05-14 00:43:59 r, 15.78m,0000000043Hz,0000010693c,0000000.023s, 023.5C,00002195
2015-05-14 00:53:59 r, 15.84m,0000000041Hz,0000011293c,0000000.025s, 023.2C,00002195
2015-05-14 01:03:59 r, 15.94m,0000000037Hz,0000012388c,0000000.027s, 023.2C,00002195
2015-05-14 01:13:59 r, 15.86m,0000000040Hz,0000011505c,0000000.025s, 023.5C,00002195
2015-05-14 01:23:59 r, 15.94m,0000000037Hz,0000012471c,0000000.027s, 023.5C,00002195
2015-05-14 01:33:59 r, 15.92m,0000000038Hz,0000012194c,0000000.026s, 023.5C,00002195
2015-05-14 01:43:59 r, 15.85m,0000000040Hz,0000011390c,0000000.025s, 023.5C,00002195
2015-05-14 01:53:59 r, 16.03m,0000000035Hz,0000013447c,0000000.029s, 023.5C,00002195
2015-05-14 02:03:59 r, 15.98m,0000000036Hz,0000012824c,0000000.028s, 023.2C,00002195
2015-05-14 02:13:59 r, 15.97m,0000000035Hz,0000012783c,0000000.028s, 023.2C,00002195
2015-05-14 02:23:59 r, 15.92m,0000000038Hz,0000012161c,0000000.026s, 023.2C,00002195
2015-05-14 02:33:59 r, 15.77m,0000000043Hz,0000010622c,0000000.023s, 023.2C,00002195
2015-05-14 02:43:59 r, 15.74m,0000000045Hz,0000010248c,0000000.022s, 023.2C,00002195
2015-05-14 02:53:59 r, 15.73m,0000000045Hz,0000010220c,0000000.022s, 023.2C,00002195
2015-05-14 03:03:59 r, 15.75m,0000000044Hz,0000010406c,0000000.023s, 023.2C,00002195
2015-05-14 03:13:59 r, 15.74m,0000000045Hz,0000010335c,0000000.022s, 023.2C,00002195
2015-05-14 03:23:59 r, 15.72m,0000000046Hz,0000010120c,0000000.022s, 023.2C,00002195
2015-05-14 03:33:59 r, 15.75m,0000000045Hz,0000010370c,0000000.023s, 023.5C,00002195
2015-05-14 03:43:59 r, 15.75m,0000000045Hz,0000010396c,0000000.023s, 023.5C,00002195
2015-05-14 03:53:59 r, 15.69m,0000000047Hz,0000009914c,0000000.022s, 023.5C,00002195
2015-05-14 04:03:59 r, 15.71m,0000000046Hz,0000010046c,0000000.022s, 023.5C,00002195
2015-05-14 04:13:59 r, 15.82m,0000000042Hz,0000011111c,0000000.024s, 023.5C,00002195
2015-05-14 04:23:59 r, 15.64m,0000000049Hz,0000009422c,0000000.020s, 023.5C,00002195
2015-05-14 04:33:59 r, 15.85m,0000000040Hz,0000011384c,0000000.025s, 023.5C,00002195
2015-05-14 04:43:59 r, 15.82m,0000000041Hz,0000011082c,0000000.024s, 023.5C,00002195
2015-05-14 04:53:59 r, 15.31m,0000000066Hz,0000006973c,0000000.015s, 023.5C,00002195
2015-05-14 05:03:59 r, 14.56m,0000000134Hz,0000000000c,0000000.000s, 023.2C,00002195
2015-05-14 05:13:59 r, 13.24m,0000000450Hz,0000000000c,0000000.000s, 023.2C,00002195
2015-05-14 05:23:59 r, 11.84m,0000001633Hz,0000000000c,0000000.000s, 023.2C,00002195
2015-05-14 05:33:59 r, 10.77m,0000004365Hz,0000000000c,0000000.000s, 023.2C,00002195
2015-05-14 05:43:59 r, 09.53m,0000013806Hz,0000000000c,0000000.000s, 023.2C,00002195
2015-05-14 05:53:59 r, 07.91m,0000061132Hz,0000000000c,0000000.000s, 023.2C,00002195
2015-05-14 06:03:59 r, 07.03m,0000137938Hz,0000000000c,0000000.000s, 023.2C,00002195
2015-05-14 06:13:59 r, 06.94m,0000150342Hz,0000000000c,0000000.000s, 023.5C,00002195
2015-05-14 06:23:59 r, 06.45m,0000234257Hz,0000000000c,0000000.000s, 023.5C,00002195
2015-05-14 06:33:59 r, 06.21m,0000294899Hz,0000000000c,0000000.000s, 023.5C,00002195
2015-05-14 06:43:59 r, 06.41m,0000242208Hz,0000000000c,0000000.000s, 023.8C,00002195
2015-05-14 06:53:59 r, 06.30m,0000268397Hz,0000000000c,0000000.000s, 023.8C,00002195
2015-05-14 07:03:59 r, 06.15m,0000309434Hz,0000000000c,0000000.000s, 023.8C,00002195
2015-05-14 07:13:59 r, 00.00m,0000489707Hz,0000000000c,0000000.000s, 023.8C,00002195
2015-05-14 07:23:59 r, 00.00m,0000518320Hz,0000000000c,0000000.000s, 023.8C,00002195
2015-05-14 07:33:59 r, 00.00m,0000563840Hz,0000000000c,0000000.000s, 024.1C,00002195
2015-05-14 07:43:59 r, 00.00m,0000563786Hz,0000000000c,0000000.000s, 023.8C,00002195
2015-05-14 07:53:59 r, 00.00m,0000539616Hz,0000000000c,0000000.000s, 024.1C,00002195
2015-05-14 08:03:59 r, 00.00m,0000464344Hz,0000000000c,0000000.000s, 024.1C,00002195
2015-05-14 08:13:59 r, 00.00m,0000563808Hz,0000000000c,0000000.000s, 024.1C,00002195
2015-05-14 08:23:59 r, 00.00m,0000563802Hz,0000000000c,0000000.000s, 024.1C,00002195
2015-05-14 08:33:59 r, 00.00m,0000563784Hz,0000000000c,0000000.000s, 024.1C,00002195
2015-05-14 08:43:59 r, 00.00m,0000563763Hz,0000000000c,0000000.000s, 024.4C,00002195
2015-05-14 08:53:59 r, 00.00m,0000563804Hz,0000000000c,0000000.000s, 024.4C,00002195
2015-05-14 09:03:59 r, 00.00m,0000563838Hz,0000000000c,0000000.000s, 024.4C,00002195
2015-05-14 09:13:59 r, 00.00m,0000563856Hz,0000000000c,0000000.000s, 024.8C,00002195
2015-05-14 09:23:59 r, 00.00m,0000563813Hz,0000000000c,0000000.000s, 024.8C,00002195
2015-05-14 09:33:59 r, 00.00m,0000563866Hz,0000000000c,0000000.000s, 024.8C,00002195
2015-05-14 09:43:59 r, 00.00m,0000563903Hz,0000000000c,0000000.000s, 025.1C,00002195
2015-05-14 09:53:59 r, 00.00m,0000563982Hz,0000000000c,0000000.000s, 025.4C,00002195
2015-05-14 10:03:59 r, 00.00m,0000564001Hz,0000000000c,0000000.000s, 025.7C,00002195
2015-05-14 10:13:59 r, 00.00m,0000564019Hz,0000000000c,0000000.000s, 025.7C,00002195
2015-05-14 10:23:59 r, 00.00m,0000564087Hz,0000000000c,0000000.000s, 026.1C,00002195
2015-05-14 10:33:59 r, 00.00m,0000564037Hz,0000000000c,0000000.000s, 026.4C,00002195
2015-05-14 10:43:59 r, 00.00m,0000564063Hz,0000000000c,0000000.000s, 026.4C,00002195
2015-05-14 10:53:59 r, 00.00m,0000564098Hz,0000000000c,0000000.000s, 026.4C,00002195
2015-05-14 11:03:59 r, 00.00m,0000564156Hz,0000000000c,0000000.000s, 026.7C,00002195
2015-05-14 11:13:59 r, 00.00m,0000564149Hz,0000000000c,0000000.000s, 026.7C,00002195
2015-05-14 11:23:59 r, 00.00m,0000564135Hz,0000000000c,0000000.000s, 027.0C,00002195
2015-05-14 11:33:59 r, 00.00m,0000564217Hz,0000000000c,0000000.000s, 027.3C,00002195
2015-05-14 11:43:59 r, 00.00m,0000564221Hz,0000000000c,0000000.000s, 027.7C,00002195
2015-05-14 11:53:59 r, 00.00m,0000564268Hz,0000000000c,0000000.000s, 027.7C,00002195
2015-05-14 12:03:59 r, 00.00m,0000564305Hz,0000000000c,0000000.000s, 028.0C,00002195
2015-05-14 12:13:59 r, 00.00m,0000564329Hz,0000000000c,0000000.000s, 028.0C,00002195
2015-05-14 12:23:59 r, 00.00m,0000564266Hz,0000000000c,0000000.000s, 028.0C,00002195
2015-05-14 12:33:59 r, 00.00m,0000564238Hz,0000000000c,0000000.000s, 028.3C,00002195
2015-05-14 12:43:59 r, 00.00m,0000564332Hz,0000000000c,0000000.000s, 028.3C,00002195
2015-05-14 12:53:59 r, 00.00m,0000564281Hz,0000000000c,0000000.000s, 028.3C,00002195
2015-05-14 13:03:59 r, 00.00m,0000564291Hz,0000000000c,0000000.000s, 028.6C,00002195
2015-05-14 13:13:59 r, 00.00m,0000564323Hz,0000000000c,0000000.000s, 028.6C,00002195
2015-05-14 13:23:59 r, 00.00m,0000564370Hz,0000000000c,0000000.000s, 029.0C,00002195
2015-05-14 13:33:59 r, 00.00m,0000564321Hz,0000000000c,0000000.000s, 029.3C,00002195
2015-05-14 13:43:59 r, 00.00m,0000564397Hz,0000000000c,0000000.000s, 029.0C,00002195
2015-05-14 13:53:59 r, 00.00m,0000564413Hz,0000000000c,0000000.000s, 029.0C,00002195
2015-05-14 14:03:59 r, 00.00m,0000564390Hz,0000000000c,0000000.000s, 029.0C,00002195
2015-05-14 14:13:59 r, 00.00m,0000564414Hz,0000000000c,0000000.000s, 029.0C,00002195
2015-05-14 14:23:59 r, 00.00m,0000564509Hz,0000000000c,0000000.000s, 029.6C,00002195
2015-05-14 14:33:59 r, 00.00m,0000564560Hz,0000000000c,0000000.000s, 029.9C,00002195
2015-05-14 14:43:59 r, 00.00m,0000564491Hz,0000000000c,0000000.000s, 029.9C,00002195
2015-05-14 14:53:59 r, 00.00m,0000564411Hz,0000000000c,0000000.000s, 029.6C,00002195
2015-05-14 15:03:59 r, 00.00m,0000564438Hz,0000000000c,0000000.000s, 029.9C,00002195
2015-05-14 15:13:59 r, 00.00m,0000564581Hz,0000000000c,0000000.000s, 030.6C,00002195
2015-05-14 15:23:59 r, 00.00m,0000564472Hz,0000000000c,0000000.000s, 030.6C,00002195
2015-05-14 15:33:59 r, 00.00m,0000564539Hz,0000000000c,0000000.000s, 030.2C,00002195
2015-05-14 15:43:59 r, 00.00m,0000564629Hz,0000000000c,0000000.000s, 030.6C,00002195
2015-05-14 15:53:59 r, 00.00m,0000564599Hz,0000000000c,0000000.000s, 030.6C,00002195
2015-05-14 16:03:59 r, 00.00m,0000564500Hz,0000000000c,0000000.000s, 030.6C,00002195
2015-05-14 16:13:59 r, 00.00m,0000564648Hz,0000000000c,0000000.000s, 030.9C,00002195
2015-05-14 16:23:59 r, 00.00m,0000564722Hz,0000000000c,0000000.000s, 031.5C,00002195
2015-05-14 16:33:59 r, 00.00m,0000564696Hz,0000000000c,0000000.000s, 031.9C,00002195
2015-05-14 16:43:59 r, 00.00m,0000564541Hz,0000000000c,0000000.000s, 030.9C,00002195
2015-05-14 16:53:59 r, 00.00m,0000564360Hz,0000000000c,0000000.000s, 029.9C,00002195
2015-05-14 17:03:59 r, 00.00m,0000564383Hz,0000000000c,0000000.000s, 029.3C,00002195
2015-05-14 17:13:59 r, 00.00m,0000564330Hz,0000000000c,0000000.000s, 029.3C,00002195
2015-05-14 17:23:59 r, 00.00m,0000564313Hz,0000000000c,0000000.000s, 029.3C,00002195
2015-05-14 17:33:59 r, 00.00m,0000564409Hz,0000000000c,0000000.000s, 029.0C,00002195
2015-05-14 17:43:59 r, 00.00m,0000564351Hz,0000000000c,0000000.000s, 029.0C,00002195
2015-05-14 17:53:59 r, 00.00m,0000564348Hz,0000000000c,0000000.000s, 028.6C,00002195
2015-05-14 18:03:59 r, 00.00m,0000564356Hz,0000000000c,0000000.000s, 028.6C,00002195
2015-05-14 18:13:59 r, 00.00m,0000564278Hz,0000000000c,0000000.000s, 028.3C,00002195
2015-05-14 18:23:59 r, 00.00m,0000564313Hz,0000000000c,0000000.000s, 028.3C,00002195
2015-05-14 18:33:59 r, 00.00m,0000564403Hz,0000000000c,0000000.000s, 028.3C,00002195
2015-05-14 18:43:59 r, 00.00m,0000564375Hz,0000000000c,0000000.000s, 028.3C,00002195
2015-05-14 18:53:59 r, 00.00m,0000564417Hz,0000000000c,0000000.000s, 028.6C,00002195
2015-05-14 19:03:59 r, 00.00m,0000564386Hz,0000000000c,0000000.000s, 028.3C,00002195
2015-05-14 19:13:59 r, 00.00m,0000564284Hz,0000000000c,0000000.000s, 028.0C,00002195
2015-05-14 19:23:59 r, 00.00m,0000480768Hz,0000000000c,0000000.000s, 027.3C,00002195
2015-05-14 19:33:59 r, 00.00m,0000539849Hz,0000000000c,0000000.000s, 027.3C,00002195
2015-05-14 19:43:59 r, 00.00m,0000564257Hz,0000000000c,0000000.000s, 027.0C,00002195
2015-05-14 19:53:59 r, 00.00m,0000564196Hz,0000000000c,0000000.000s, 027.0C,00002195
2015-05-14 20:03:59 r, 00.00m,0000567700Hz,0000000000c,0000000.000s, 026.7C,00002195
2015-05-14 20:13:59 r, 00.00m,0000435148Hz,0000000000c,0000000.000s, 026.7C,00002195
2015-05-14 20:23:59 r, 00.00m,0000412549Hz,0000000000c,0000000.000s, 026.7C,00002195
2015-05-14 20:33:59 r, 06.82m,0000167041Hz,0000000000c,0000000.000s, 026.4C,00002195
2015-05-14 20:43:59 r, 07.64m,0000078386Hz,0000000000c,0000000.000s, 026.4C,00002195
2015-05-14 20:53:59 r, 08.11m,0000050493Hz,0000000000c,0000000.000s, 026.1C,00002195
2015-05-14 21:03:59 r, 08.75m,0000028110Hz,0000000000c,0000000.000s, 025.7C,00002195
2015-05-14 21:13:59 r, 09.48m,0000014361Hz,0000000000c,0000000.000s, 025.7C,00002195
2015-05-14 21:23:59 r, 10.62m,0000005055Hz,0000000000c,0000000.000s, 025.4C,00002195
2015-05-14 21:33:59 r, 12.46m,0000000925Hz,0000000000c,0000000.000s, 025.1C,00002195
2015-05-14 21:43:59 r, 13.58m,0000000328Hz,0000000000c,0000000.000s, 025.1C,00002195
2015-05-14 21:53:59 r, 14.49m,0000000142Hz,0000000000c,0000000.000s, 025.1C,00002195
2015-05-14 22:03:59 r, 15.01m,0000000086Hz,0000005267c,0000000.011s, 024.8C,00002195
2015-05-14 22:13:59 r, 15.15m,0000000076Hz,0000005999c,0000000.013s, 024.8C,00002195
2015-05-14 22:23:59 r, 15.16m,0000000076Hz,0000006040c,0000000.013s, 024.8C,00002195
2015-05-14 22:33:59 r, 15.44m,0000000059Hz,0000007829c,0000000.017s, 024.8C,00002195
2015-05-14 22:43:59 r, 15.42m,0000000060Hz,0000007654c,0000000.017s, 024.8C,00002195
2015-05-14 22:53:59 r, 15.08m,0000000083Hz,0000005601c,0000000.012s, 024.8C,00002195
2015-05-14 23:03:59 r, 14.93m,0000000094Hz,0000004899c,0000000.011s, 024.8C,00002195
2015-05-14 23:13:59 r, 15.10m,0000000081Hz,0000005726c,0000000.012s, 024.8C,00002195
2015-05-14 23:23:59 r, 15.20m,0000000074Hz,0000006296c,0000000.014s, 024.8C,00002195
2015-05-14 23:33:59 r, 15.04m,0000000084Hz,0000005430c,0000000.012s, 024.8C,00002195
2015-05-14 23:43:59 r, 15.24m,0000000070Hz,0000006489c,0000000.014s, 024.8C,00002195
2015-05-14 23:53:59 r, 14.97m,0000000093Hz,0000005075c,0000000.011s, 024.8C,00002195
